Location: Miami, Florida
(25.6830°N, 80.1700°W)
Time: 05:19:51
(UTC-04:00)

ISS - Visible Passes

Search period start: 17 February 2019 00:00
Search period end: 27 February 2019 00:00
Orbit: 403 x 411 km, 51.6° (Epoch: 17 February)

Date Brightness Start Highest point End Pass type
(mag) Time Alt. Az. Time Alt. Az. Time Alt. Az.
20 Feb -1.9 07:01:57 10° SSW 07:04:54 32° SE 07:07:50 10° ENE visible
21 Feb -0.8 06:11:47 10° SSE 06:13:34 14° SE 06:15:22 10° E visible
22 Feb -3.9 06:55:50 15° SW 06:58:22 64° NW 07:01:36 10° NE visible
23 Feb -2.5 06:07:34 41° E 06:07:34 41° E 06:10:05 10° NE visible
24 Feb -2.3 06:51:46 20° NW 06:51:58 20° NW 06:54:27 10° N visible
25 Feb -1.1 06:02:57 14° NNE 06:02:57 14° NNE 06:03:30 10° NNE visible
